Tracking 29040 objects as of 15-Jun-2024
HD Live streaming from Space Station
objects crossing your sky now

DELTA 1 DEB

Track DELTA 1 DEB now!
10-day predictions


NORAD ID: 9040
Int'l Code: 1975-004DE
Perigee: 705.1 km
Apogee: 773.2 km
Inclination: 98.0 °
Period: 99.4 minutes
Semi major axis: 7110 km
RCS: 0.0254 m2 (small)
Launch date: January 22, 1975
Source: United States (US)
Launch site: AIR FORCE WESTERN TEST RANGE (AFWTR)

Note: This is SATELLITE DEBRIS
Your satellite tracking list
Your tracking list is empty




NASA's NSSDC Master Catalog

Two Line Element Set (TLE):
1 09040U 75004DE  24166.79839371  .00000435  00000-0  12651-3 0  9995
2 09040  97.9855 264.7901 0047945  73.3610 287.2841 14.48054934507338
Source of the keplerian elements: AFSPC